Richlands, VA

11:56 PM EDT on April 24, 2017 (GMT -0400)
Tazewell County

Weather History for KJFZ - March, 2014

Change the Weather History Date:

Wednesday, March 19, 2014

  Actual Average (KBLF) Record (KBLF)
Temperature  
Mean Temperature 54 °F -  
Max Temperature 64 °F 53 °F 80 °F (2012)
Min Temperature 44 °F 33 °F 17 °F (1967)
Degree Days  
Heating Degree Days 11    
Growing Degree Days 4 (Base 50)    
Moisture  
Dew Point 40 °F    
Average Humidity 63    
Maximum Humidity 79    
Minimum Humidity 41    
Precipitation  
Precipitation 0.00 in - - ()
Sea Level Pressure  
Sea Level Pressure 29.96 in    
Wind  
Wind Speed 10 mph (SSW)    
Max Wind Speed 25 mph    
Max Gust Speed 37 mph    
Visibility 10 miles    
Events      
Averages and records for this station are not official NWS values.
T = Trace of Precipitation, MM = Missing Value Source: NWS Daily Summary

Daily Weather History Graph

Daily Weather History Graph

Search for Another Location

Airport or City:

Trip Planner

Search our weather history database for the weather conditions in past years. The results will help you decide how hot, cold, wet, or windy it might be!

Date:

Astronomy

Mar. 19, 2014 Rise Set
Actual Time 7:32 AM EDT 7:38 PM EDT
Civil Twilight 7:06 AM EDT 8:04 PM EDT
Nautical Twilight 6:36 AM EDT 8:34 PM EDT
Astronomical Twilight 6:05 AM EDT 9:05 PM EDT
Moon 10:50 PM EDT (3/19) 9:01 AM EDT (3/19)
Length of Visible Light 12h 57m
Length of Day
12h 05m
Waning Gibbous, 91% of the Moon is Illuminated
Mar 19
Waning Gibbous
Mar 23
Last Quarter
Mar 30
New
Apr 7
First Quarter
Apr 15
Full

Hourly Weather History & Observations

Time (EDT) Temp. Windchill Dew Point Humidity Pressure Visibility Wind Dir Wind Speed Gust Speed Precip Events Conditions
12:15 AM 45.0 °F 39.7 °F 38.1 °F 77% 29.98 in 10.0 mi SSE 10.4 mph 20.7 mph N/A   Clear
12:35 AM 44.8 °F 40.4 °F 37.9 °F 77% 29.98 in 10.0 mi SE 8.1 mph - N/A   Clear
12:55 AM 45.9 °F 39.7 °F 37.8 °F 73% 29.99 in 10.0 mi SE 13.8 mph 18.4 mph N/A   Clear
1:15 AM 45.7 °F 41.0 °F 37.9 °F 74% 30.01 in 10.0 mi SE 9.2 mph 17.3 mph N/A   Clear
1:35 AM 44.8 °F 41.0 °F 37.9 °F 77% 30.02 in 10.0 mi SE 6.9 mph - N/A   Clear
1:55 AM 44.4 °F 40.5 °F 38.3 °F 79% 30.03 in 10.0 mi SE 6.9 mph - N/A   Clear
2:15 AM 44.4 °F 38.2 °F 38.3 °F 79% 30.00 in 10.0 mi SE 12.7 mph 19.6 mph N/A   Clear
2:35 AM 44.8 °F 39.0 °F 38.3 °F 78% 30.01 in 10.0 mi SE 11.5 mph 19.6 mph N/A   Clear
2:55 AM 45.1 °F 39.1 °F 38.3 °F 77% 30.01 in 10.0 mi SE 12.7 mph 21.9 mph N/A   Clear
3:15 AM 45.5 °F 39.2 °F 38.3 °F 76% 29.99 in 10.0 mi SSE 13.8 mph 24.2 mph N/A   Clear
3:35 AM 45.5 °F 39.2 °F 38.3 °F 76% 29.99 in 10.0 mi SE 13.8 mph 21.9 mph N/A   Clear
3:55 AM 45.0 °F 39.3 °F 38.3 °F 77% 29.98 in 10.0 mi SE 11.5 mph 18.4 mph N/A   Clear
4:15 AM 45.1 °F 39.1 °F 38.3 °F 77% 29.98 in 10.0 mi SE 12.7 mph 17.3 mph N/A   Clear
4:35 AM 45.7 °F 40.6 °F 38.5 °F 76% 29.97 in 10.0 mi SSE 10.4 mph 19.6 mph N/A   Clear
4:55 AM 45.7 °F 41.5 °F 38.7 °F 76% 29.97 in 10.0 mi SSE 8.1 mph 18.4 mph N/A   Clear
5:15 AM 46.4 °F 42.4 °F 39.0 °F 75% 29.98 in 10.0 mi SSE 8.1 mph - N/A   Clear
5:35 AM 45.9 °F 41.7 °F 39.2 °F 78% 29.98 in 10.0 mi SSE 8.1 mph - N/A   Clear
5:55 AM 46.2 °F 42.7 °F 39.0 °F 76% 29.98 in 10.0 mi SSE 6.9 mph - N/A   Clear
6:15 AM 46.4 °F 42.9 °F 38.8 °F 75% 29.99 in 10.0 mi SSE 6.9 mph - N/A   Clear
6:35 AM 46.6 °F - 39.2 °F 75% 29.99 in 10.0 mi SSE 5.8 mph - N/A   Clear
6:55 AM 46.9 °F - 39.4 °F 75% 29.99 in 10.0 mi SSE 6.9 mph - N/A   Clear
7:15 AM 46.4 °F 45.2 °F 39.4 °F 77% 29.99 in 10.0 mi SSE 3.5 mph - N/A   Clear
7:35 AM 47.5 °F - 39.6 °F 74% 29.99 in 10.0 mi SSE 4.6 mph - N/A   Clear
7:55 AM 47.5 °F - 39.7 °F 75% 29.98 in 10.0 mi SSE 4.6 mph - N/A   Clear
8:15 AM 47.1 °F - 39.9 °F 76% 29.99 in 10.0 mi SE 3.5 mph - N/A   Clear
8:35 AM 48.2 °F - 40.3 °F 74% 29.98 in 10.0 mi SE 4.6 mph - N/A   Clear
8:55 AM 49.6 °F - 41.0 °F 72% 29.99 in 10.0 mi SE 3.5 mph - N/A   Clear
9:15 AM 51.4 °F - 41.5 °F 69% 29.98 in 10.0 mi SE 4.6 mph - N/A   Clear
9:35 AM 52.9 °F - 41.9 °F 66% 29.98 in 10.0 mi South 4.6 mph - N/A   Clear
9:55 AM 52.9 °F - 41.7 °F 66% 29.99 in 10.0 mi South 6.9 mph - N/A   Clear
10:15 AM 54.0 °F - 41.7 °F 63% 29.99 in 10.0 mi South 5.8 mph - N/A   Clear
10:35 AM 55.8 °F - 42.3 °F 60% 29.98 in 10.0 mi South 9.2 mph - N/A   Clear
10:55 AM 56.3 °F - 41.7 °F 58% 29.97 in 10.0 mi South 11.5 mph 17.3 mph N/A   Clear
11:15 AM 57.6 °F - 42.3 °F 57% 29.96 in 10.0 mi SSE 6.9 mph 20.7 mph N/A   Clear
11:35 AM 58.8 °F - 41.9 °F 53% 29.96 in 10.0 mi South 9.2 mph 16.1 mph N/A   Clear
11:55 AM 59.0 °F - 40.8 °F 51% 29.96 in 10.0 mi SSW 11.5 mph 19.6 mph N/A   Clear
12:15 PM 60.1 °F - 41.0 °F 49% 29.94 in 10.0 mi South 13.8 mph 20.7 mph N/A   Clear
12:35 PM 60.6 °F - 41.5 °F 49% 29.94 in 10.0 mi SW 10.4 mph 24.2 mph N/A   Clear
12:55 PM 60.8 °F - 42.6 °F 51% 29.94 in 10.0 mi SW 9.2 mph - N/A   Clear
1:15 PM 61.7 °F - 42.8 °F 50% 29.93 in 10.0 mi SSW 10.4 mph 17.3 mph N/A   Clear
1:35 PM 62.4 °F - 41.7 °F 47% 29.92 in 10.0 mi SW 9.2 mph 18.4 mph N/A   Clear
1:55 PM 62.2 °F - 42.3 °F 48% 29.92 in 10.0 mi SW 8.1 mph 20.7 mph N/A   Clear
2:15 PM 62.2 °F - 43.7 °F 51% 29.91 in 10.0 mi West 6.9 mph - N/A   Clear
2:35 PM 63.9 °F - 41.7 °F 44% 29.91 in 10.0 mi SSW 12.7 mph 20.7 mph N/A   Clear
2:55 PM 62.8 °F - 40.1 °F 43% 29.89 in 10.0 mi SSW 11.5 mph 20.7 mph N/A   Clear
3:15 PM 63.7 °F - 39.4 °F 41% 29.88 in 10.0 mi SW 11.5 mph 19.6 mph N/A   Clear
3:35 PM 64.6 °F - 40.6 °F 42% 29.88 in 10.0 mi WSW 11.5 mph 20.7 mph N/A   Clear
3:55 PM 64.4 °F - 41.9 °F 44% 29.88 in 10.0 mi WSW 18.4 mph 29.9 mph N/A   Clear
4:15 PM 63.1 °F - 42.6 °F 47% 29.88 in 10.0 mi WSW 15.0 mph 25.3 mph N/A   Scattered Clouds
4:35 PM 62.8 °F - 42.8 °F 48% 29.89 in 10.0 mi WSW 12.7 mph 25.3 mph N/A   Scattered Clouds
4:55 PM 63.0 °F - 42.3 °F 47% 29.89 in 10.0 mi WSW 16.1 mph 33.4 mph N/A   Scattered Clouds
5:15 PM 62.6 °F - 42.3 °F 47% 29.89 in 10.0 mi WSW 17.3 mph 25.3 mph N/A   Scattered Clouds
5:35 PM 61.7 °F - 42.4 °F 49% 29.89 in 10.0 mi WSW 16.1 mph 26.5 mph N/A   Scattered Clouds
5:55 PM 61.7 °F - 41.5 °F 48% 29.89 in 10.0 mi West 25.3 mph 34.5 mph N/A   Scattered Clouds
6:15 PM 60.4 °F - 40.6 °F 48% 29.90 in 10.0 mi WSW 20.7 mph 36.8 mph N/A   Clear
6:35 PM 58.8 °F - 41.2 °F 52% 29.91 in 10.0 mi WSW 16.1 mph 27.6 mph N/A   Clear
6:55 PM 58.3 °F - 41.0 °F 53% 29.92 in 10.0 mi West 16.1 mph 24.2 mph N/A   Mostly Cloudy
7:15 PM 56.5 °F - 39.2 °F 52% 29.93 in 10.0 mi WSW 13.8 mph 25.3 mph N/A   Mostly Cloudy
7:35 PM 55.6 °F - 39.6 °F 55% 29.93 in 10.0 mi WSW 11.5 mph 24.2 mph N/A   Mostly Cloudy
7:55 PM 55.4 °F - 39.6 °F 55% 29.94 in 10.0 mi WSW 13.8 mph 20.7 mph N/A   Overcast
8:15 PM 54.7 °F - 39.6 °F 57% 29.94 in 10.0 mi WSW 11.5 mph 17.3 mph N/A   Overcast
8:35 PM 54.3 °F - 39.6 °F 57% 29.95 in 10.0 mi WSW 12.7 mph 20.7 mph N/A   Overcast
8:55 PM 53.8 °F - 39.7 °F 59% 29.95 in 10.0 mi WSW 9.2 mph 19.6 mph N/A   Overcast
9:15 PM 53.1 °F - 39.6 °F 60% 29.95 in 10.0 mi WSW 13.8 mph 20.7 mph N/A   Overcast
9:35 PM 52.7 °F - 39.7 °F 61% 29.95 in 10.0 mi WSW 12.7 mph 17.3 mph N/A   Mostly Cloudy
9:55 PM 52.5 °F - 40.1 °F 63% 29.96 in 10.0 mi WSW 12.7 mph 24.2 mph N/A   Mostly Cloudy
10:15 PM 51.8 °F - 40.8 °F 66% 29.96 in 10.0 mi WSW 15.0 mph 24.2 mph N/A   Overcast
10:35 PM 51.8 °F - 41.2 °F 67% 29.96 in 10.0 mi WSW 11.5 mph 23.0 mph N/A   Overcast
10:55 PM 51.3 °F - 41.5 °F 69% 29.96 in 10.0 mi SW 11.5 mph 20.7 mph N/A   Overcast
11:15 PM 50.5 °F - 41.9 °F 72% 29.96 in 10.0 mi WSW 12.7 mph 17.3 mph N/A   Mostly Cloudy
11:35 PM 50.4 °F - 42.6 °F 75% 29.96 in 10.0 mi WSW 15.0 mph 21.9 mph N/A   Mostly Cloudy
11:55 PM 50.0 °F - 42.8 °F 76% 29.96 in 10.0 mi SW 12.7 mph 19.6 mph N/A   Overcast